Time,TemperatureF,DewpointF,PressureIn,WindDirection,WindDirectionDegrees,WindSpeedMPH,WindSpeedGustMPH,Humidity,HourlyPrecipIn,Conditions,Clouds,dailyrainin,SolarRadiationWatts/m^2,SoftwareType,DateUTC
2013-05-23 00:03:00,65.0,64.0,-100.00,NW,308,0.0,4.0,96,0.00,,,0.04,0.000000,,2013-05-23 04:03:00,
2013-05-23 00:33:00,64.0,63.0,-100.00,South,190,0.0,0.0,97,0.00,,,0.04,0.000000,,2013-05-23 04:33:00,
2013-05-23 00:43:00,64.0,63.0,-100.00,South,190,0.0,0.0,97,0.00,,,0.04,0.000000,,2013-05-23 04:43:00,
2013-05-23 00:52:00,64.0,63.0,-100.00,South,190,0.0,0.0,97,0.00,,,0.04,0.000000,,2013-05-23 04:52:00,
2013-05-23 01:02:00,64.0,63.0,-100.00,South,190,0.0,0.0,97,0.00,,,0.04,0.000000,,2013-05-23 05:02:00,
2013-05-23 01:32:00,64.0,63.0,-100.00,SW,232,1.0,11.0,97,0.09,,,0.13,0.000000,,2013-05-23 05:32:00,
2013-05-23 01:43:00,64.0,63.0,-100.00,SW,232,1.0,11.0,97,0.09,,,0.13,0.000000,,2013-05-23 05:43:00,
2013-05-23 01:52:00,64.0,63.0,-100.00,SW,232,1.0,11.0,97,0.09,,,0.13,0.000000,,2013-05-23 05:52:00,
2013-05-23 02:02:00,64.0,63.0,-100.00,SW,232,1.0,11.0,97,0.09,,,0.13,0.000000,,2013-05-23 06:02:00,
2013-05-23 02:32:00,64.0,63.0,-100.00,ESE,110,0.0,19.0,96,0.24,,,0.37,0.000000,,2013-05-23 06:32:00,
2013-05-23 02:42:00,64.0,63.0,-100.00,ESE,110,0.0,19.0,96,0.24,,,0.37,0.000000,,2013-05-23 06:42:00,
2013-05-23 02:52:00,64.0,63.0,-100.00,ESE,110,0.0,19.0,96,0.24,,,0.37,0.000000,,2013-05-23 06:52:00,
2013-05-23 03:02:00,64.0,63.0,-100.00,ESE,110,0.0,19.0,96,0.24,,,0.37,0.000000,,2013-05-23 07:02:00,
2013-05-23 03:32:00,62.0,61.0,-100.00,SSE,151,0.0,0.0,97,0.00,,,0.37,0.000000,,2013-05-23 07:32:00,
2013-05-23 03:42:00,62.0,61.0,-100.00,SSE,151,0.0,0.0,97,0.00,,,0.37,0.000000,,2013-05-23 07:42:00,
2013-05-23 03:59:00,62.0,61.0,-100.00,SSE,151,0.0,0.0,97,0.00,,,0.37,0.000000,,2013-05-23 07:59:00,
2013-05-23 04:32:00,61.0,60.0,-100.00,SE,135,0.0,0.0,98,0.00,,,0.37,0.000000,,2013-05-23 08:32:00,
2013-05-23 04:42:00,61.0,60.0,-100.00,SE,135,0.0,0.0,98,0.00,,,0.37,0.000000,,2013-05-23 08:42:00,
2013-05-23 04:52:00,61.0,60.0,-100.00,SE,135,0.0,0.0,98,0.00,,,0.37,0.000000,,2013-05-23 08:52:00,
2013-05-23 05:02:00,61.0,60.0,-100.00,SE,135,0.0,0.0,98,0.00,,,0.37,0.000000,,2013-05-23 09:02:00,
2013-05-23 05:33:00,61.0,60.0,-100.00,SW,217,0.0,0.0,98,0.00,,,0.37,0.000000,,2013-05-23 09:33:00,
2013-05-23 05:42:00,61.0,60.0,-100.00,SW,217,0.0,0.0,98,0.00,,,0.37,0.000000,,2013-05-23 09:42:00,
2013-05-23 05:53:00,61.0,60.0,-100.00,SW,217,0.0,0.0,98,0.00,,,0.37,0.000000,,2013-05-23 09:53:00,
2013-05-23 06:03:00,61.0,60.0,-100.00,SW,217,0.0,0.0,98,0.00,,,0.37,0.000000,,2013-05-23 10:03:00,
2013-05-23 06:32:00,59.0,58.0,-100.00,SSE,150,0.0,0.0,98,0.01,,,0.38,0.000000,,2013-05-23 10:32:00,
2013-05-23 06:42:00,59.0,58.0,-100.00,SSE,150,0.0,0.0,98,0.01,,,0.38,0.000000,,2013-05-23 10:42:00,
2013-05-23 06:52:00,59.0,58.0,-100.00,SSE,150,0.0,0.0,98,0.01,,,0.38,0.000000,,2013-05-23 10:52:00,
2013-05-23 07:02:00,59.0,58.0,-100.00,SSE,150,0.0,0.0,98,0.01,,,0.38,0.000000,,2013-05-23 11:02:00,
2013-05-23 07:32:00,58.0,57.0,-100.00,SSE,160,0.0,0.0,98,0.00,,,0.38,7.000000,,2013-05-23 11:32:00,
2013-05-23 07:42:00,58.0,57.0,-100.00,SSE,160,0.0,0.0,98,0.00,,,0.38,7.000000,,2013-05-23 11:42:00,
2013-05-23 07:52:00,58.0,57.0,-100.00,SSE,160,0.0,0.0,98,0.00,,,0.38,7.000000,,2013-05-23 11:52:00,
2013-05-23 08:01:00,58.0,57.0,-100.00,SSE,160,0.0,0.0,98,0.00,,,0.38,7.000000,,2013-05-23 12:01:00,
2013-05-23 08:32:00,63.0,62.0,-100.00,SSW,195,0.0,0.0,97,0.00,,,0.38,106.000000,,2013-05-23 12:32:00,
2013-05-23 08:42:00,63.0,62.0,-100.00,SSW,195,0.0,0.0,97,0.00,,,0.38,106.000000,,2013-05-23 12:42:00,
2013-05-23 08:52:00,63.0,62.0,-100.00,SSW,195,0.0,0.0,97,0.00,,,0.38,106.000000,,2013-05-23 12:52:00,
2013-05-23 09:01:00,63.0,62.0,-100.00,SSW,195,0.0,0.0,97,0.00,,,0.38,106.000000,,2013-05-23 13:01:00,
2013-05-23 09:32:00,69.0,66.0,-100.00,South,181,4.0,6.0,90,0.00,,,-99.99,283.000000,,2013-05-23 13:32:00,
2013-05-23 09:42:00,69.0,66.0,-100.00,South,181,4.0,6.0,90,0.00,,,-99.99,283.000000,,2013-05-23 13:42:00,
2013-05-23 09:52:00,69.0,66.0,-100.00,South,181,4.0,6.0,90,0.00,,,-99.99,283.000000,,2013-05-23 13:52:00,
2013-05-23 10:02:00,69.0,66.0,-100.00,South,181,4.0,6.0,90,0.00,,,-99.99,283.000000,,2013-05-23 14:02:00,
2013-05-23 10:32:00,74.0,67.0,-100.00,SSW,198,4.0,7.0,79,0.00,,,0.38,458.000000,,2013-05-23 14:32:00,
2013-05-23 10:42:00,74.0,67.0,-100.00,SSW,198,4.0,7.0,79,0.00,,,0.38,458.000000,,2013-05-23 14:42:00,
2013-05-23 10:52:00,74.0,67.0,-100.00,SSW,198,4.0,7.0,79,0.00,,,0.38,458.000000,,2013-05-23 14:52:00,
2013-05-23 11:01:00,74.0,67.0,-100.00,SSW,198,4.0,7.0,79,0.00,,,0.38,458.000000,,2013-05-23 15:01:00,
2013-05-23 11:33:00,77.0,64.0,-100.00,SW,225,3.0,9.0,65,0.00,,,0.38,618.000000,,2013-05-23 15:33:00,
2013-05-23 11:43:00,77.0,64.0,-100.00,SW,225,3.0,9.0,65,0.00,,,0.38,618.000000,,2013-05-23 15:43:00,
2013-05-23 11:53:00,77.0,64.0,-100.00,SW,225,3.0,9.0,65,0.00,,,0.38,618.000000,,2013-05-23 15:53:00,
2013-05-23 12:03:00,77.0,64.0,-100.00,SW,225,3.0,9.0,65,0.00,,,0.38,618.000000,,2013-05-23 16:03:00,
2013-05-23 12:34:00,79.0,66.0,-100.00,SSW,194,5.0,13.0,64,0.00,,,0.38,760.000000,,2013-05-23 16:34:00,
2013-05-23 12:43:00,79.0,66.0,-100.00,SSW,194,5.0,13.0,64,0.00,,,0.38,760.000000,,2013-05-23 16:43:00,
2013-05-23 12:53:00,79.0,66.0,-100.00,SSW,194,5.0,13.0,64,0.00,,,0.38,760.000000,,2013-05-23 16:53:00,
2013-05-23 13:03:00,79.0,66.0,-100.00,SSW,194,5.0,13.0,64,0.00,,,0.38,760.000000,,2013-05-23 17:03:00,
2013-05-23 13:33:00,80.0,63.0,-100.00,SW,232,5.0,12.0,56,0.00,,,0.38,805.000000,,2013-05-23 17:33:00,
2013-05-23 13:43:00,80.0,63.0,-100.00,SW,232,5.0,12.0,56,0.00,,,0.38,805.000000,,2013-05-23 17:43:00,
2013-05-23 13:53:00,80.0,63.0,-100.00,SW,232,5.0,12.0,56,0.00,,,0.38,805.000000,,2013-05-23 17:53:00,
2013-05-23 14:01:00,80.0,63.0,-100.00,SW,232,5.0,12.0,56,0.00,,,0.38,805.000000,,2013-05-23 18:01:00,
2013-05-23 14:32:00,80.0,63.0,-100.00,WSW,240,6.0,13.0,57,0.00,,,0.38,615.000000,,2013-05-23 18:32:00,
2013-05-23 14:42:00,80.0,63.0,-100.00,WSW,240,6.0,13.0,57,0.00,,,0.38,615.000000,,2013-05-23 18:42:00,
2013-05-23 14:52:00,80.0,63.0,-100.00,WSW,240,6.0,13.0,57,0.00,,,0.38,615.000000,,2013-05-23 18:52:00,
2013-05-23 15:01:00,80.0,63.0,-100.00,WSW,240,6.0,13.0,57,0.00,,,0.38,615.000000,,2013-05-23 19:01:00,
2013-05-23 15:32:00,84.0,56.0,-100.00,West,276,7.0,16.0,39,0.00,,,0.38,986.000000,,2013-05-23 19:32:00,
2013-05-23 15:42:00,84.0,56.0,-100.00,West,276,7.0,16.0,39,0.00,,,0.38,986.000000,,2013-05-23 19:42:00,
2013-05-23 15:52:00,84.0,56.0,-100.00,West,276,7.0,16.0,39,0.00,,,0.38,986.000000,,2013-05-23 19:52:00,
2013-05-23 16:02:00,84.0,56.0,-100.00,West,276,7.0,16.0,39,0.00,,,0.38,986.000000,,2013-05-23 20:02:00,
2013-05-23 16:32:00,81.0,56.0,-100.00,West,279,6.0,18.0,42,0.00,,,0.38,743.000000,,2013-05-23 20:32:00,
2013-05-23 16:42:00,81.0,56.0,-100.00,West,279,6.0,18.0,42,0.00,,,0.38,743.000000,,2013-05-23 20:42:00,
2013-05-23 16:52:00,81.0,56.0,-100.00,West,279,6.0,18.0,42,0.00,,,0.38,743.000000,,2013-05-23 20:52:00,
2013-05-23 17:01:00,81.0,56.0,-100.00,West,279,6.0,18.0,42,0.00,,,0.38,743.000000,,2013-05-23 21:01:00,
2013-05-23 17:33:00,79.0,57.0,-100.00,West,259,4.0,17.0,47,0.00,,,0.36,510.000000,,2013-05-23 21:33:00,
2013-05-23 17:43:00,79.0,57.0,-100.00,West,259,4.0,17.0,47,0.00,,,0.36,510.000000,,2013-05-23 21:43:00,
2013-05-23 17:53:00,79.0,57.0,-100.00,West,259,4.0,17.0,47,0.00,,,0.36,510.000000,,2013-05-23 21:53:00,
2013-05-23 18:03:00,79.0,57.0,-100.00,West,259,4.0,17.0,47,0.00,,,0.36,510.000000,,2013-05-23 22:03:00,
2013-05-23 18:33:00,76.0,55.0,-100.00,West,280,5.0,16.0,48,0.00,,,-99.99,173.000000,,2013-05-23 22:33:00,
2013-05-23 18:42:00,76.0,55.0,-100.00,West,280,5.0,16.0,48,0.00,,,-99.99,173.000000,,2013-05-23 22:42:00,
2013-05-23 18:52:00,76.0,55.0,-100.00,West,280,5.0,16.0,48,0.00,,,-99.99,173.000000,,2013-05-23 22:52:00,
2013-05-23 19:02:00,76.0,55.0,-100.00,West,280,5.0,16.0,48,0.00,,,-99.99,173.000000,,2013-05-23 23:02:00,
2013-05-23 19:32:00,77.0,55.0,-100.00,NW,324,6.0,12.0,46,0.00,,,0.36,111.000000,,2013-05-23 23:32:00,
2013-05-23 19:42:00,77.0,55.0,-100.00,NW,324,6.0,12.0,46,0.00,,,0.36,111.000000,,2013-05-23 23:42:00,
2013-05-23 19:52:00,77.0,55.0,-100.00,NW,324,6.0,12.0,46,0.00,,,0.36,111.000000,,2013-05-23 23:52:00,
2013-05-23 20:01:00,77.0,55.0,-100.00,NW,324,6.0,12.0,46,0.00,,,0.36,111.000000,,2013-05-24 00:01:00,
2013-05-23 20:32:00,72.0,54.0,-100.00,NW,324,4.0,14.0,54,0.00,,,0.34,82.000000,,2013-05-24 00:32:00,
2013-05-23 20:42:00,72.0,54.0,-100.00,NW,324,4.0,14.0,54,0.00,,,0.34,82.000000,,2013-05-24 00:42:00,
2013-05-23 20:52:00,72.0,54.0,-100.00,NW,324,4.0,14.0,54,0.00,,,0.34,82.000000,,2013-05-24 00:52:00,
2013-05-23 21:01:00,72.0,54.0,-100.00,NW,324,4.0,14.0,54,0.00,,,0.34,82.000000,,2013-05-24 01:01:00,
2013-05-23 21:32:00,69.0,55.0,-100.00,West,277,0.0,7.0,62,0.00,,,0.34,8.000000,,2013-05-24 01:32:00,
2013-05-23 21:42:00,69.0,55.0,-100.00,West,277,0.0,7.0,62,0.00,,,0.34,8.000000,,2013-05-24 01:42:00,
2013-05-23 21:52:00,69.0,55.0,-100.00,West,277,0.0,7.0,62,0.00,,,0.34,8.000000,,2013-05-24 01:52:00,
2013-05-23 22:02:00,69.0,55.0,-100.00,West,277,0.0,7.0,62,0.00,,,0.34,8.000000,,2013-05-24 02:02:00,
2013-05-23 22:32:00,67.0,54.0,-100.00,NW,311,1.0,10.0,63,0.00,,,0.34,0.000000,,2013-05-24 02:32:00,
2013-05-23 22:42:00,67.0,54.0,-100.00,NW,311,1.0,10.0,63,0.00,,,0.34,0.000000,,2013-05-24 02:42:00,
2013-05-23 22:52:00,67.0,54.0,-100.00,NW,311,1.0,10.0,63,0.00,,,0.34,0.000000,,2013-05-24 02:52:00,
2013-05-23 23:02:00,67.0,54.0,-100.00,NW,311,1.0,10.0,63,0.00,,,0.34,0.000000,,2013-05-24 03:02:00,
2013-05-23 23:33:00,63.0,58.0,-100.00,South,172,0.0,7.0,84,0.00,,,0.34,0.000000,,2013-05-24 03:33:00,
2013-05-23 23:42:00,63.0,58.0,-100.00,South,172,0.0,7.0,84,0.00,,,0.34,0.000000,,2013-05-24 03:42:00,
2013-05-23 23:53:00,63.0,58.0,-100.00,South,172,0.0,7.0,84,0.00,,,0.34,0.000000,,2013-05-24 03:53:00,